Location: Carrières
(48.9495°N, 2.0407°E)
Time: 19:16:12
(UTC+00:00)

SR - Pass Details

Date: 20 April 2024
Orbit: 579 x 860 km, 66.7° (Epoch: 23 May)

Event Time Altitude Azimuth Distance (km) Brightness Sun altitude
Exits shadow 03:14:04 17° 265° (W) 1,886 ? -14.7°
Maximum altitude 03:17:26 32° 318° (NW) 1,265 ? -14.3°
Drops below altitude 10° 03:21:57 10° 22° (NNE) 2,194 ? -13.7°
Sets 03:24:26 0° 33° (NNE) 3,067 ? -13.3°
